This demonstration page uses our WeatherBlox Daily Observations layout. Learn more.

Left ArrowRight Arrow

39.51506, -84.39828

Hourly Observations for September 16, 2021

Temp ( °F °C ) Dew Point ( °F °C ) Humidity (%) Winds ( mph kmh ) Pressure ( in mb ) Visibility ( mi km ) Precip ( " mm )
12:15 am 00:15 Clear 59 15 N/A N/A NNE 3 6 30.08 1019 10 16 N/A
12:35 am 00:35 Clear 59 15 N/A N/A NNE 5 7 30.08 1019 10 16 N/A
12:55 am 00:55 Clear 59 15 N/A N/A NNE 5 7 30.08 1019 10 16 N/A
1:15 am 01:15 Clear 59 15 N/A N/A NNE 3 6 30.08 1019 10 16 N/A
1:35 am 01:35 Clear 59 15 N/A N/A NNE 3 6 30.08 1019 10 16 N/A
1:55 am 01:55 Clear 59 15 N/A N/A NE 5 7 30.08 1019 10 16 N/A
2:15 am 02:15 Clear 59 15 N/A N/A NE 5 7 30.08 1019 10 16 N/A
2:35 am 02:35 Clear 59 15 N/A N/A N N/A 30.08 1019 10 16 N/A
2:55 am 02:55 Clear 59 15 N/A N/A N N/A 30.08 1019 10 16 N/A
3:15 am 03:15 Clear 59 15 N/A N/A N N/A 30.08 1019 10 16 N/A
3:35 am 03:35 Clear 59 15 N/A N/A N N/A 30.08 1019 10 16 N/A
3:55 am 03:55 Clear 59 15 N/A N/A N N/A 30.08 1019 10 16 N/A
4:15 am 04:15 Clear 59 15 N/A N/A NNE 5 7 30.08 1019 10 16 N/A
4:35 am 04:35 Clear 59 15 N/A N/A N 6 9 30.08 1019 10 16 N/A
4:55 am 04:55 Clear 59 15 N/A N/A N 6 9 30.08 1019 10 16 N/A
5:15 am 05:15 Clear 59 15 N/A N/A NNE 3 6 30.08 1019 10 16 N/A
5:35 am 05:35 Mostly Cloudy 59 15 N/A N/A N N/A 30.08 1019 10 16 N/A
5:55 am 05:55 Mostly Cloudy 61 16 N/A N/A NNE 5 7 30.08 1019 10 16 N/A
6:15 am 06:15 Mostly Cloudy 61 16 N/A N/A N N/A 30.08 1019 7 11 N/A
6:35 am 06:35 Cloudy 63 17 N/A N/A E 3 6 30.08 1019 7 11 N/A
6:55 am 06:55 Cloudy 63 17 N/A N/A NNE 3 6 30.09 1019 10 16 N/A
7:15 am 07:15 Cloudy 63 17 N/A N/A N 5 7 30.10 1019 7 11 N/A
7:35 am 07:35 Cloudy with Haze 63 17 N/A N/A NNE 5 7 30.11 1020 4 6 N/A
7:55 am 07:55 Cloudy with Mist and Fog 63 17 N/A N/A N 6 9 30.12 1020 2 3 N/A
8:15 am 08:15 Cloudy with Mist and Fog 63 17 N/A N/A NNE 8 13 30.12 1020 2 2 N/A
8:35 am 08:35 Cloudy with Mist and Fog 63 17 N/A N/A NNE 7 11 30.13 1020 1 2 N/A
8:55 am 08:55 Cloudy with Mist and Fog 64 18 N/A N/A NNE 7 11 30.13 1020 1 2 N/A
9:15 am 09:15 Cloudy with Mist and Fog 64 18 N/A N/A NNE 7 11 30.13 1020 3 4 N/A
9:35 am 09:35 Cloudy with Mist and Fog 64 18 N/A N/A NNE 8 13 30.14 1021 3 4 N/A
9:55 am 09:55 Cloudy with Mist and Fog 64 18 N/A N/A NNE 6 9 30.14 1021 3 4 N/A
10:15 am 10:15 Cloudy with Mist and Fog 66 19 N/A N/A NE 5 7 30.14 1021 4 6 N/A
10:35 am 10:35 Cloudy with Haze 66 19 N/A N/A NE 5 7 30.14 1021 7 11 N/A
10:55 am 10:55 Cloudy 67 19.4 67 19.2 99 99 NE 7 11 30.15 1021 7 11 N/A
11:15 am 11:15 Cloudy with Mist and Fog 66 19 66 19 100 100 NE 5 7 30.15 1021 7 11 N/A
11:35 am 11:35 Cloudy 67 19.7 67 19.5 99 99 NNE 5 7 30.15 1021 10 16 N/A
11:55 am 11:55 Cloudy 68 20.1 67 19.3 95 95 ENE 5 7 30.14 1021 10 16 N/A
12:15 pm 12:15 Cloudy 69 20.5 67 19.4 93 93 N 6 9 30.13 1020 10 16 N/A
12:35 pm 12:35 Cloudy 69 20.5 67 19.4 93 93 NNE 3 6 30.13 1020 10 16 N/A
12:55 pm 12:55 Cloudy 69 20.8 67 19.3 91 91 NE 5 7 30.13 1020 10 16 N/A
1:15 pm 13:15 Cloudy 71 21.4 67 19.2 87 87 ENE 5 7 30.12 1020 10 16 N/A
1:35 pm 13:35 Cloudy 71 21.5 67 19.4 88 88 ESE 8 13 30.12 1020 10 16 N/A
1:55 pm 13:55 Cloudy 72 22.1 67 19.5 85 85 ESE 9 15 30.12 1020 10 16 N/A
2:15 pm 14:15 Cloudy 74 23.2 67 19.4 79 79 NE 9 15 30.11 1020 10 16 N/A
2:35 pm 14:35 Cloudy 73 22.9 68 19.9 83 83 ENE 8 13 30.10 1019 10 16 N/A
2:55 pm 14:55 Mostly Cloudy 74 23.6 68 19.8 79 79 NNE 7 11 30.09 1019 10 16 N/A
3:15 pm 15:15 Mostly Cloudy 74 23.6 67 19.7 79 79 NE 6 9 30.09 1019 10 16 N/A
3:35 pm 15:35 Mostly Cloudy with Haze 77 24.9 67 19.5 72 72 S 3 6 30.07 1018 7 11 N/A
3:55 pm 15:55 Cloudy 76 24.4 67 19.3 73 73 N N/A 30.07 1018 10 16 N/A
4:15 pm 16:15 Cloudy 76 24.3 66 19.1 73 73 ENE 3 6 30.06 1018 10 16 N/A
4:35 pm 16:35 Cloudy 78 25.6 66 18.8 66 66 E 5 7 30.06 1018 10 16 N/A
4:55 pm 16:55 Cloudy 79 26 67 19.3 67 67 NNE 6 9 30.06 1018 10 16 N/A
5:15 pm 17:15 Partly Cloudy 76 24.6 66 18.7 70 70 N N/A 30.06 1018 10 16 N/A
5:35 pm 17:35 Sunny 78 25.3 66 19 68 68 N N/A 30.06 1018 10 16 N/A
5:55 pm 17:55 Sunny 78 25.7 66 18.8 66 66 N N/A 30.05 1018 10 16 N/A
6:15 pm 18:15 Sunny 78 25.5 66 18.9 67 67 E 3 6 30.05 1018 10 16 N/A
6:35 pm 18:35 Sunny 77 25.1 67 19.2 70 70 NNE 5 7 30.05 1018 10 16 N/A
6:55 pm 18:55 Sunny 77 24.9 67 19.2 71 71 N 5 7 30.05 1018 10 16 N/A
7:15 pm 19:15 Sunny 75 24 68 20.2 79 79 NE 3 6 30.07 1018 10 16 N/A
7:35 pm 19:35 Sunny 72 22.4 70 21 92 92 N 3 6 30.07 1018 10 16 N/A
7:55 pm 19:55 Clear 70 21.2 69 20.5 96 96 N 5 7 30.07 1018 10 16 N/A
8:15 pm 20:15 Clear 69 20.3 68 20.1 99 99 N 3 6 30.07 1018 10 16 N/A
8:35 pm 20:35 Clear 68 20 N/A N/A NNE 3 6 30.07 1018 10 16 N/A
8:55 pm 20:55 Clear 68 20 68 20 100 100 N 3 6 30.08 1019 10 16 N/A
9:15 pm 21:15 Clear 66 19 N/A N/A NNE 3 6 30.10 1019 10 16 N/A
9:35 pm 21:35 Clear 66 19 N/A N/A N N/A 30.11 1020 10 16 N/A
9:55 pm 21:55 Clear 66 19 N/A N/A N 3 6 30.12 1020 10 16 N/A
10:15 pm 22:15 Clear 64 18 N/A N/A N N/A 30.12 1020 10 16 N/A
10:35 pm 22:35 Clear 64 18 N/A N/A N N/A 30.11 1020 7 11 N/A
10:55 pm 22:55 Hazy 64 18 N/A N/A N 3 6 30.12 1020 5 8 N/A
11:15 pm 23:15 Clear 64 18 N/A N/A N N/A 30.12 1020 7 11 N/A
11:35 pm 23:35 Hazy 63 17 N/A N/A N N/A 30.12 1020 5 8 N/A
11:55 pm 23:55 Hazy 63 17 N/A N/A N 3 6 30.12 1020 5 8 N/A

Powered by AerisWeather